Погода в Новой Бухтарме

Казахстан     49°37′37″N   83°31′07″E
темп.,
°C
ветер,
м/с
пор.,
м/с
влажн.,
%
обл.,
%
осадки,
мм/ч
давл.,
гПа
погр.,
м
1 марта, пн
пн100:00−13вюв3494100 0.4 1030116
03:00−12вюв3496100 0.7 1028182
06:00−11вюв3496100 3.3 1027194
09:00−10вюв4695100 2.3 1027318
12:00−9вюв4894100 4.1 1025573
15:00−8вюв4795100 1.9 1024435
18:00−8в3596100 4.6 1023277
21:00−8вюв3596100 3.0 1023270
2 марта, вт
вт200:00−7вюв2496100 6.1 1023243
03:00−7вюв2596100 3.3 1022344
06:00−7вюв2397100 6.8 1023181
09:00−6вюв3496100 3.0 1023248
12:00−5вюв3595100 5.4 1021370
15:00−4вюв3596100 2.3 1019344
18:00−5вюв2497100 4.4 1018204
21:00−5юв2597100 2.5 1018347
3 марта, ср
ср300:00−5юв2597100 5.0 1017379
03:00−6юв2297100 2.5 1018110
06:00−6юв2297100 4.3 102073
09:00−7юв1296100 0.6 1021109
12:00−6зсз229198 0.9 1023267
15:00−6зсз238693 0.1 1023258
18:00−11ссз228766 0.1 102621
21:00−12св118085 0.0 102821
4 марта, чт
чт400:00−12в228792 0.0 103021
03:00−14в229691 0.0 103020
06:00−16в229872 0.0 103220
09:00−13в229363 0.0 103147
12:00−9вюв348744 0.0 1030215
15:00−8юв238641 0.0 1028177
18:00−12в228157 0.0 102821
21:00−13в226886 0.0 102921
5 марта, пт
пт500:00−14в226461 0.0 102821
03:00−13в2371100 0.0 102523
06:00−13вюв3377100 0.0 102234
09:00−10вюв3478100 0.0 1019148
12:00−7вюв2489100 0.9 1019240
15:00−4ю5990100 2.1 1023595
18:00−6вюв2297100 3.6 1028101
21:00−7вюв2297100 1.1 103229